^^
Station Historical Data
Daily Summary for January 28, 2018 Units:  English    Metric   Both
« Previous Day
Next Day »
Daily Weekly Monthly Yearly Custom
  High: Low: Average:
Temperature: TemperatureF °F 62.1 °F 68.3 °F
Dew Point: DewpointF °F 60.9 °F 64.9 °F
Humidity: Humidity% 60% 90%
Wind Speed: WindSpeedMPHmph 0.0mph 0mph
Wind Gust: WindSpeedGustMPHmph - -
Wind- - North
Pressure: PressureIn in 30.03 in -
Precipitation: 0.57 in    
Historical Graphs
 
 
Tabular Data for January 28, 2018
Time Temperature Dew Point Pressure Wind Wind Speed Wind Gust Humidity Rainfall Rate (Hourly) solar Conditions
TemperatureF °F DewpointF °F PressureIn in Calm     Humidity% HourlyPrecipIn in SolarRadiationWatts/m^2 W/m2 Conditions
00:02 63.0 °F 60.9 °F 30.24 in Calm     93% 0.00 in 0.0 W/m2 RA
00:07 63.0 °F 60.9 °F 30.24 in Calm     93% 0.00 in 0.0 W/m2 RA
00:12 63.0 °F 60.9 °F 30.24 in Calm     93% 0.00 in 0.0 W/m2 SCT
00:17 63.0 °F 60.9 °F 30.24 in Calm     93% 0.00 in 0.0 W/m2 SCT
00:22 63.0 °F 60.9 °F 30.24 in Calm     93% 0.00 in 0.0 W/m2 SCT
00:27 63.0 °F 60.9 °F 30.24 in Calm     93% 0.00 in 0.0 W/m2 SCT
00:32 63.0 °F 60.9 °F 30.24 in Calm     93% 0.00 in 0.0 W/m2 SCT
00:37 63.0 °F 60.9 °F 30.24 in Calm     93% 0.00 in 0.0 W/m2 SCT
00:42 63.0 °F 60.9 °F 30.24 in Calm     93% 0.00 in 0.0 W/m2 SCT
00:47 63.0 °F 60.9 °F 30.24 in Calm     93% 0.00 in 0.0 W/m2 SCT
00:52 63.0 °F 60.9 °F 30.24 in Calm     93% 0.00 in 0.0 W/m2 SCT
00:57 63.0 °F 60.9 °F 30.24 in Calm     93% 0.00 in 0.0 W/m2 SCT
01:02 62.1 °F 60.9 °F 30.23 in Calm     96% 0.00 in 0.0 W/m2 CLR
01:07 62.1 °F 60.9 °F 30.23 in Calm     96% 0.00 in 0.0 W/m2 CLR
01:12 62.1 °F 60.9 °F 30.23 in Calm     96% 0.00 in 0.0 W/m2 CLR
01:17 62.1 °F 60.9 °F 30.23 in Calm     96% 0.00 in 0.0 W/m2 CLR
01:22 62.1 °F 60.9 °F 30.23 in Calm     96% 0.00 in 0.0 W/m2 CLR
01:27 62.1 °F 60.9 °F 30.23 in Calm     96% 0.00 in 0.0 W/m2 CLR
01:32 62.1 °F 60.9 °F 30.23 in Calm     96% 0.00 in 0.0 W/m2 CLR
01:37 62.1 °F 60.9 °F 30.23 in Calm     96% 0.00 in 0.0 W/m2 CLR
01:42 62.1 °F 60.9 °F 30.23 in Calm     96% 0.00 in 0.0 W/m2 CLR
01:47 62.1 °F 60.9 °F 30.23 in Calm     96% 0.00 in 0.0 W/m2 CLR
01:52 62.1 °F 60.9 °F 30.23 in Calm     96% 0.00 in 0.0 W/m2 CLR
01:57 62.1 °F 60.9 °F 30.23 in Calm     96% 0.00 in 0.0 W/m2 CLR
02:02 63.0 °F 61.8 °F 30.22 in Calm     96% 0.00 in 0.0 W/m2 CLR
02:07 63.0 °F 61.8 °F 30.22 in Calm     96% 0.00 in 0.0 W/m2 CLR
02:12 63.0 °F 61.8 °F 30.22 in Calm     96% 0.00 in 0.0 W/m2 CLR
02:17 63.0 °F 61.8 °F 30.22 in Calm     96% 0.00 in 0.0 W/m2 CLR
02:22 63.0 °F 61.8 °F 30.22 in Calm     96% 0.00 in 0.0 W/m2 CLR
02:27 63.0 °F 61.8 °F 30.22 in Calm     96% 0.00 in 0.0 W/m2 CLR
02:32 63.0 °F 61.8 °F 30.22 in Calm     96% 0.00 in 0.0 W/m2 CLR
02:37 63.0 °F 61.8 °F 30.22 in Calm     96% 0.00 in 0.0 W/m2 CLR
02:42 63.0 °F 61.8 °F 30.22 in Calm     96% 0.00 in 0.0 W/m2 CLR
02:47 63.0 °F 61.8 °F 30.22 in Calm     96% 0.00 in 0.0 W/m2 CLR
02:52 63.0 °F 61.8 °F 30.22 in Calm     96% 0.00 in 0.0 W/m2 CLR
02:57 63.0 °F 61.8 °F 30.22 in Calm     96% 0.00 in 0.0 W/m2 CLR
03:02 63.0 °F 63.0 °F 30.20 in Calm     100% 0.00 in 0.0 W/m2 FEW
03:07 63.0 °F 63.0 °F 30.20 in Calm     100% 0.00 in 0.0 W/m2 FEW
03:12 63.0 °F 63.0 °F 30.20 in Calm     100% 0.00 in 0.0 W/m2 FEW
03:17 63.0 °F 63.0 °F 30.20 in Calm     100% 0.00 in 0.0 W/m2 FEW
03:22 63.0 °F 63.0 °F 30.20 in Calm     100% 0.00 in 0.0 W/m2 FEW
03:27 63.0 °F 63.0 °F 30.20 in Calm     100% 0.00 in 0.0 W/m2 FEW
03:32 63.0 °F 63.0 °F 30.20 in Calm     100% 0.00 in 0.0 W/m2 FEW
03:37 63.0 °F 63.0 °F 30.20 in Calm     100% 0.00 in 0.0 W/m2 FEW
03:42 63.0 °F 63.0 °F 30.20 in Calm     100% 0.00 in 0.0 W/m2 FEW
03:47 63.0 °F 63.0 °F 30.20 in Calm     100% 0.00 in 0.0 W/m2 FEW
03:52 63.0 °F 63.0 °F 30.20 in Calm     100% 0.00 in 0.0 W/m2 FEW
03:57 63.0 °F 63.0 °F 30.20 in Calm     100% 0.00 in 0.0 W/m2 FEW
04:02 64.0 °F 62.9 °F 30.19 in Calm     96% 0.00 in 0.0 W/m2 OVC
04:07 64.0 °F 62.9 °F 30.19 in Calm     96% 0.00 in 0.0 W/m2 OVC
04:12 64.0 °F 62.9 °F 30.19 in Calm     96% 0.00 in 0.0 W/m2 OVC
04:17 64.0 °F 62.9 °F 30.19 in Calm     96% 0.00 in 0.0 W/m2 OVC
04:22 64.0 °F 62.9 °F 30.19 in Calm     96% 0.00 in 0.0 W/m2 OVC
04:27 64.0 °F 62.9 °F 30.19 in Calm     96% 0.00 in 0.0 W/m2 OVC
04:32 64.0 °F 62.9 °F 30.19 in Calm     96% 0.00 in 0.0 W/m2 OVC
04:37 64.0 °F 62.9 °F 30.19 in Calm     96% 0.00 in 0.0 W/m2 OVC
04:42 64.0 °F 62.9 °F 30.19 in Calm     96% 0.00 in 0.0 W/m2 OVC
04:47 64.0 °F 62.9 °F 30.19 in Calm     96% 0.00 in 0.0 W/m2 OVC
04:52 64.0 °F 62.9 °F 30.19 in Calm     96% 0.00 in 0.0 W/m2 OVC
04:57 64.0 °F 62.9 °F 30.19 in Calm     96% 0.00 in 0.0 W/m2 OVC
05:02 64.0 °F 62.0 °F 30.18 in Calm     93% 0.00 in 0.0 W/m2 OVC
05:07 64.0 °F 62.0 °F 30.18 in Calm     93% 0.00 in 0.0 W/m2 OVC
05:12 64.0 °F 62.0 °F 30.18 in Calm     93% 0.00 in 0.0 W/m2 OVC
05:17 64.0 °F 62.0 °F 30.18 in Calm     93% 0.00 in 0.0 W/m2 OVC
05:22 64.0 °F 62.0 °F 30.18 in Calm     93% 0.00 in 0.0 W/m2 OVC
05:27 64.0 °F 62.0 °F 30.18 in Calm     93% 0.00 in 0.0 W/m2 OVC
05:32 64.0 °F 62.0 °F 30.18 in Calm     93% 0.00 in 0.0 W/m2 OVC
05:37 64.0 °F 62.0 °F 30.18 in Calm     93% 0.00 in 0.0 W/m2 OVC
05:42 64.0 °F 62.0 °F 30.18 in Calm     93% 0.00 in 0.0 W/m2 OVC
05:47 64.0 °F 62.0 °F 30.18 in Calm     93% 0.00 in 0.0 W/m2 OVC
05:52 64.0 °F 62.0 °F 30.18 in Calm     93% 0.00 in 0.0 W/m2 OVC
05:57 64.0 °F 62.0 °F 30.18 in Calm     93% 0.00 in 0.0 W/m2 OVC
06:02 62.1 °F 62.1 °F 30.19 in Calm     100% 0.00 in 0.0 W/m2 CLR
06:07 62.1 °F 62.1 °F 30.19 in Calm     100% 0.00 in 0.0 W/m2 CLR
06:12 62.1 °F 62.1 °F 30.19 in Calm     100% 0.00 in 0.0 W/m2 CLR
06:17 62.1 °F 62.1 °F 30.19 in Calm     100% 0.00 in 0.0 W/m2 CLR
06:22 62.1 °F 62.1 °F 30.19 in Calm     100% 0.00 in 0.0 W/m2 CLR
06:27 62.1 °F 62.1 °F 30.19 in Calm     100% 0.00 in 0.0 W/m2 CLR
06:32 62.1 °F 62.1 °F 30.19 in Calm     100% 0.00 in 0.0 W/m2 CLR
06:37 62.1 °F 62.1 °F 30.19 in Calm     100% 0.00 in 0.0 W/m2 CLR
06:42 62.1 °F 62.1 °F 30.19 in Calm     100% 0.00 in 0.0 W/m2 CLR
06:47 62.1 °F 62.1 °F 30.19 in Calm     100% 0.00 in 0.0 W/m2 CLR
06:52 62.1 °F 62.1 °F 30.19 in Calm     100% 0.00 in 0.0 W/m2 CLR
06:57 62.1 °F 62.1 °F 30.19 in Calm     100% 0.00 in 0.0 W/m2 CLR
07:02 63.0 °F 61.8 °F 30.20 in Calm     96% 0.00 in 0.0 W/m2 BKN
07:07 63.0 °F 61.8 °F 30.20 in Calm     96% 0.00 in 0.0 W/m2 BKN
07:12 63.0 °F 61.8 °F 30.20 in Calm     96% 0.00 in 0.0 W/m2 BKN
07:17 63.0 °F 61.8 °F 30.20 in Calm     96% 0.00 in 0.0 W/m2 BKN
07:22 63.0 °F 61.8 °F 30.20 in Calm     96% 0.00 in 0.0 W/m2 BKN
07:24 63.0 °F 61.8 °F 30.20 in Calm     96% 0.00 in 0.0 W/m2 BKN
07:29 63.0 °F 61.8 °F 30.20 in Calm     96% 0.00 in 0.0 W/m2 BKN
07:34 63.0 °F 61.8 °F 30.20 in Calm     96% 0.00 in 0.0 W/m2 BKN
07:39 63.0 °F 61.8 °F 30.20 in Calm     96% 0.00 in 0.0 W/m2 BKN
07:44 63.0 °F 61.8 °F 30.20 in Calm     96% 0.00 in 0.0 W/m2 BKN
07:49 63.0 °F 61.8 °F 30.20 in Calm     96% 0.00 in 0.0 W/m2 BKN
07:54 63.0 °F 61.8 °F 30.20 in Calm     96% 0.00 in 0.0 W/m2 BKN
07:59 63.0 °F 61.8 °F 30.20 in Calm     96% 0.00 in 0.0 W/m2 BKN
08:04 64.9 °F 62.9 °F 30.20 in Calm     93% 0.00 in 0.0 W/m2 FEW
08:09 64.9 °F 62.9 °F 30.20 in Calm     93% 0.00 in 0.0 W/m2 FEW
08:14 64.9 °F 62.9 °F 30.20 in Calm     93% 0.00 in 0.0 W/m2 FEW
08:19 64.9 °F 62.9 °F 30.20 in Calm     93% 0.00 in 0.0 W/m2 FEW
08:24 64.9 °F 62.9 °F 30.20 in Calm     93% 0.00 in 0.0 W/m2 FEW
08:29 64.9 °F 62.9 °F 30.20 in Calm     93% 0.00 in 0.0 W/m2 FEW
08:34 64.9 °F 62.9 °F 30.20 in Calm     93% 0.00 in 0.0 W/m2 FEW
08:39 64.9 °F 62.9 °F 30.20 in Calm     93% 0.00 in 0.0 W/m2 FEW
08:44 64.9 °F 62.9 °F 30.20 in Calm     93% 0.00 in 0.0 W/m2 FEW
08:49 64.9 °F 62.9 °F 30.20 in Calm     93% 0.00 in 0.0 W/m2 FEW
08:54 64.9 °F 62.9 °F 30.20 in Calm     93% 0.00 in 0.0 W/m2 FEW
08:59 64.9 °F 62.9 °F 30.20 in Calm     93% 0.00 in 0.0 W/m2 FEW
09:04 68.0 °F 64.0 °F 30.20 in Calm     87% 0.00 in 0.0 W/m2 CLR
09:09 68.0 °F 64.0 °F 30.20 in Calm     87% 0.00 in 0.0 W/m2 CLR
09:14 68.0 °F 64.0 °F 30.20 in Calm     87% 0.00 in 0.0 W/m2 CLR
09:19 68.0 °F 64.0 °F 30.20 in Calm     87% 0.00 in 0.0 W/m2 CLR
09:24 68.0 °F 64.0 °F 30.20 in Calm     87% 0.00 in 0.0 W/m2 CLR
09:29 68.0 °F 64.0 °F 30.20 in Calm     87% 0.00 in 0.0 W/m2 CLR
09:34 68.0 °F 64.0 °F 30.20 in Calm     87% 0.00 in 0.0 W/m2 CLR
09:39 68.0 °F 64.0 °F 30.20 in Calm     87% 0.00 in 0.0 W/m2 CLR
09:44 68.0 °F 64.0 °F 30.20 in Calm     87% 0.00 in 0.0 W/m2 CLR
09:49 68.0 °F 64.0 °F 30.20 in Calm     87% 0.00 in 0.0 W/m2 CLR
09:54 68.0 °F 64.0 °F 30.20 in Calm     87% 0.00 in 0.0 W/m2 CLR
09:59 68.0 °F 64.0 °F 30.20 in Calm     87% 0.00 in 0.0 W/m2 CLR
10:04 71.1 °F 63.9 °F 30.20 in Calm     78% 0.00 in 0.0 W/m2 CLR
10:09 71.1 °F 63.9 °F 30.20 in Calm     78% 0.00 in 0.0 W/m2 CLR
10:14 71.1 °F 63.9 °F 30.20 in Calm     78% 0.00 in 0.0 W/m2 CLR
10:19 71.1 °F 63.9 °F 30.20 in Calm     78% 0.00 in 0.0 W/m2 CLR
10:24 71.1 °F 63.9 °F 30.20 in Calm     78% 0.00 in 0.0 W/m2 CLR
10:29 71.1 °F 63.9 °F 30.20 in Calm     78% 0.00 in 0.0 W/m2 CLR
10:34 71.1 °F 63.9 °F 30.20 in Calm     78% 0.00 in 0.0 W/m2 CLR
10:39 71.1 °F 63.9 °F 30.20 in Calm     78% 0.00 in 0.0 W/m2 CLR
10:44 71.1 °F 63.9 °F 30.20 in Calm     78% 0.00 in 0.0 W/m2 CLR
10:49 71.1 °F 63.9 °F 30.20 in Calm     78% 0.00 in 0.0 W/m2 CLR
10:54 71.1 °F 63.9 °F 30.20 in Calm     78% 0.00 in 0.0 W/m2 CLR
10:59 71.1 °F 63.9 °F 30.20 in Calm     78% 0.00 in 0.0 W/m2 CLR
11:04 75.9 °F 64.6 °F 30.18 in Calm     68% 0.00 in 0.0 W/m2 CLR
11:09 75.9 °F 64.6 °F 30.18 in Calm     68% 0.00 in 0.0 W/m2 CLR
11:14 75.9 °F 64.6 °F 30.18 in Calm     68% 0.00 in 0.0 W/m2 CLR
11:19 75.9 °F 64.6 °F 30.18 in Calm     68% 0.00 in 0.0 W/m2 CLR
11:24 75.9 °F 64.6 °F 30.18 in Calm     68% 0.00 in 0.0 W/m2 CLR
11:29 75.9 °F 64.6 °F 30.18 in Calm     68% 0.00 in 0.0 W/m2 CLR
11:34 75.9 °F 64.6 °F 30.18 in Calm     68% 0.00 in 0.0 W/m2 CLR
11:39 75.9 °F 64.6 °F 30.18 in Calm     68% 0.00 in 0.0 W/m2 CLR
11:44 75.9 °F 64.6 °F 30.18 in Calm     68% 0.00 in 0.0 W/m2 CLR
11:49 75.9 °F 64.6 °F 30.18 in Calm     68% 0.00 in 0.0 W/m2 CLR
11:54 75.9 °F 64.6 °F 30.18 in Calm     68% 0.00 in 0.0 W/m2 CLR
11:59 75.9 °F 64.6 °F 30.18 in Calm     68% 0.00 in 0.0 W/m2 CLR
12:04 77.0 °F 64.8 °F 30.15 in Calm     66% 0.00 in 0.0 W/m2 SCT
12:09 77.0 °F 64.8 °F 30.15 in Calm     66% 0.00 in 0.0 W/m2 SCT
12:14 77.0 °F 64.8 °F 30.15 in Calm     66% 0.00 in 0.0 W/m2 SCT
12:19 77.0 °F 64.8 °F 30.15 in Calm     66% 0.00 in 0.0 W/m2 SCT
12:24 77.0 °F 64.8 °F 30.15 in Calm     66% 0.00 in 0.0 W/m2 SCT
12:29 77.0 °F 64.8 °F 30.15 in Calm     66% 0.00 in 0.0 W/m2 SCT
12:34 77.0 °F 64.8 °F 30.15 in Calm     66% 0.00 in 0.0 W/m2 SCT
12:39 77.0 °F 64.8 °F 30.15 in Calm     66% 0.00 in 0.0 W/m2 SCT
12:44 77.0 °F 64.8 °F 30.15 in Calm     66% 0.00 in 0.0 W/m2 SCT
12:49 77.0 °F 64.8 °F 30.15 in Calm     66% 0.00 in 0.0 W/m2 SCT
12:54 77.0 °F 64.8 °F 30.15 in Calm     66% 0.00 in 0.0 W/m2 SCT
12:59 77.0 °F 64.8 °F 30.15 in Calm     66% 0.00 in 0.0 W/m2 SCT
13:04 80.1 °F 64.9 °F 30.11 in Calm     60% 0.00 in 0.0 W/m2 BKN
13:09 80.1 °F 64.9 °F 30.11 in Calm     60% 0.00 in 0.0 W/m2 BKN
13:14 80.1 °F 64.9 °F 30.11 in Calm     60% 0.00 in 0.0 W/m2 BKN
13:19 80.1 °F 64.9 °F 30.11 in Calm     60% 0.00 in 0.0 W/m2 BKN
13:24 80.1 °F 64.9 °F 30.11 in Calm     60% 0.00 in 0.0 W/m2 BKN
13:29 80.1 °F 64.9 °F 30.11 in Calm     60% 0.00 in 0.0 W/m2 BKN
13:34 80.1 °F 64.9 °F 30.11 in Calm     60% 0.00 in 0.0 W/m2 BKN
13:39 80.1 °F 64.9 °F 30.11 in Calm     60% 0.00 in 0.0 W/m2 BKN
13:44 80.1 °F 64.9 °F 30.11 in Calm     60% 0.00 in 0.0 W/m2 BKN
13:49 80.1 °F 64.9 °F 30.11 in Calm     60% 0.00 in 0.0 W/m2 BKN
13:54 80.1 °F 64.9 °F 30.11 in Calm     60% 0.00 in 0.0 W/m2 BKN
13:59 80.1 °F 64.9 °F 30.11 in Calm     60% 0.00 in 0.0 W/m2 BKN
14:04 72.0 °F 67.9 °F 30.08 in Calm     87% 0.00 in 0.0 W/m2 SCT
14:09 72.0 °F 67.9 °F 30.08 in Calm     87% 0.00 in 0.0 W/m2 SCT
14:14 72.0 °F 67.9 °F 30.08 in Calm     87% 0.00 in 0.0 W/m2 SCT
14:19 72.0 °F 67.9 °F 30.08 in Calm     87% 0.00 in 0.0 W/m2 SCT
14:24 72.0 °F 67.9 °F 30.08 in Calm     87% 0.00 in 0.0 W/m2 SCT
14:29 72.0 °F 67.9 °F 30.08 in Calm     87% 0.00 in 0.0 W/m2 SCT
14:34 72.0 °F 67.9 °F 30.08 in Calm     87% 0.00 in 0.0 W/m2 SCT
14:39 72.0 °F 67.9 °F 30.08 in Calm     87% 0.00 in 0.0 W/m2 SCT
14:44 72.0 °F 67.9 °F 30.08 in Calm     87% 0.00 in 0.0 W/m2 SCT
14:49 72.0 °F 67.9 °F 30.08 in Calm     87% 0.00 in 0.0 W/m2 SCT
14:54 72.0 °F 67.9 °F 30.08 in Calm     87% 0.00 in 0.0 W/m2 SCT
14:59 72.0 °F 67.9 °F 30.08 in Calm     87% 0.00 in 0.0 W/m2 SCT
15:04 73.9 °F 67.7 °F 30.04 in Calm     81% 0.00 in 0.0 W/m2 BKN
15:09 73.9 °F 67.7 °F 30.04 in Calm     81% 0.00 in 0.0 W/m2 BKN
15:14 73.9 °F 67.7 °F 30.04 in Calm     81% 0.00 in 0.0 W/m2 BKN
15:19 73.0 °F 67.9 °F 30.04 in Calm     84% 0.00 in 0.0 W/m2 BKN
15:24 73.0 °F 67.9 °F 30.04 in Calm     84% 0.00 in 0.0 W/m2 BKN
15:29 73.0 °F 67.9 °F 30.04 in Calm     84% 0.00 in 0.0 W/m2 BKN
15:34 70.0 °F 68.8 °F 30.04 in Calm     96% 0.00 in 0.0 W/m2 BKN
15:39 70.0 °F 68.8 °F 30.04 in Calm     96% 0.00 in 0.0 W/m2 BKN
15:44 70.0 °F 68.8 °F 30.04 in Calm     96% 0.00 in 0.0 W/m2 BKN
15:49 71.1 °F 69.9 °F 30.04 in Calm     96% 0.00 in 0.0 W/m2 BKN
15:54 71.1 °F 69.9 °F 30.04 in Calm     96% 0.00 in 0.0 W/m2 BKN
15:59 71.1 °F 69.9 °F 30.04 in Calm     96% 0.00 in 0.0 W/m2 BKN
16:04 72.0 °F 69.8 °F 30.04 in Calm     93% 0.00 in 0.0 W/m2 OVC
16:09 72.0 °F 69.8 °F 30.04 in Calm     93% 0.00 in 0.0 W/m2 OVC
16:14 72.0 °F 69.8 °F 30.04 in Calm     93% 0.00 in 0.0 W/m2 OVC
16:19 72.0 °F 69.8 °F 30.04 in Calm     93% 0.00 in 0.0 W/m2 OVC
16:24 72.0 °F 69.8 °F 30.04 in Calm     93% 0.00 in 0.0 W/m2 OVC
16:29 72.0 °F 69.8 °F 30.04 in Calm     93% 0.00 in 0.0 W/m2 OVC
16:34 72.0 °F 69.8 °F 30.04 in Calm     93% 0.00 in 0.0 W/m2 OVC
16:39 72.0 °F 69.8 °F 30.04 in Calm     93% 0.00 in 0.0 W/m2 OVC
16:44 72.0 °F 69.8 °F 30.04 in Calm     93% 0.00 in 0.0 W/m2 OVC
16:49 72.0 °F 69.8 °F 30.04 in Calm     93% 0.00 in 0.0 W/m2 OVC
16:54 72.0 °F 69.8 °F 30.04 in Calm     93% 0.00 in 0.0 W/m2 OVC
16:59 72.0 °F 69.8 °F 30.04 in Calm     93% 0.00 in 0.0 W/m2 OVC
17:04 72.0 °F 68.9 °F 30.03 in Calm     90% 0.00 in 0.0 W/m2 BKN
17:09 72.0 °F 68.9 °F 30.03 in Calm     90% 0.00 in 0.0 W/m2 BKN
17:14 72.0 °F 68.9 °F 30.03 in Calm     90% 0.00 in 0.0 W/m2 BKN
17:19 72.0 °F 68.9 °F 30.03 in Calm     90% 0.00 in 0.0 W/m2 BKN
17:24 72.0 °F 68.9 °F 30.03 in Calm     90% 0.00 in 0.0 W/m2 BKN
17:29 72.0 °F 68.9 °F 30.03 in Calm     90% 0.00 in 0.0 W/m2 BKN
17:34 72.0 °F 68.9 °F 30.03 in Calm     90% 0.00 in 0.0 W/m2 OVC
17:39 72.0 °F 68.9 °F 30.03 in Calm     90% 0.00 in 0.0 W/m2 OVC
17:44 72.0 °F 68.9 °F 30.03 in Calm     90% 0.00 in 0.0 W/m2 OVC
17:49 72.0 °F 68.9 °F 30.03 in Calm     90% 0.00 in 0.0 W/m2 -RA
17:54 72.0 °F 68.9 °F 30.03 in Calm     90% 0.00 in 0.0 W/m2 -RA
17:59 72.0 °F 68.9 °F 30.03 in Calm     90% 0.00 in 0.0 W/m2 -RA
18:04 71.1 °F 68.0 °F 30.03 in Calm     90% 0.02 in 0.0 W/m2 -RA
18:09 71.1 °F 68.0 °F 30.03 in Calm     90% 0.02 in 0.0 W/m2 -RA
18:14 71.1 °F 68.0 °F 30.03 in Calm     90% 0.02 in 0.0 W/m2 -RA
18:19 71.1 °F 68.0 °F 30.03 in Calm     90% 0.02 in 0.0 W/m2 -RA
18:24 71.1 °F 68.0 °F 30.03 in Calm     90% 0.02 in 0.0 W/m2 -RA
18:29 71.1 °F 68.0 °F 30.03 in Calm     90% 0.02 in 0.0 W/m2 -RA
18:34 71.1 °F 68.0 °F 30.03 in Calm     90% 0.02 in 0.0 W/m2 -RA
18:39 71.1 °F 68.0 °F 30.03 in Calm     90% 0.02 in 0.0 W/m2 -RA
18:44 71.1 °F 68.0 °F 30.03 in Calm     90% 0.02 in 0.0 W/m2 -RA
18:49 71.1 °F 68.0 °F 30.03 in Calm     90% 0.02 in 0.0 W/m2 -RA
18:54 71.1 °F 68.0 °F 30.03 in Calm     90% 0.02 in 0.0 W/m2 -RA
18:59 71.1 °F 68.0 °F 30.03 in Calm     90% 0.02 in 0.0 W/m2 -RA
19:04 70.0 °F 67.9 °F 30.04 in Calm     93% 0.02 in 0.0 W/m2 RA
19:09 70.0 °F 67.9 °F 30.04 in Calm     93% 0.02 in 0.0 W/m2 RA
19:14 70.0 °F 67.9 °F 30.04 in Calm     93% 0.02 in 0.0 W/m2 OVC
19:19 70.0 °F 67.9 °F 30.04 in Calm     93% 0.02 in 0.0 W/m2 OVC
19:24 70.0 °F 67.9 °F 30.04 in Calm     93% 0.02 in 0.0 W/m2 OVC
19:29 70.0 °F 67.9 °F 30.04 in Calm     93% 0.02 in 0.0 W/m2 OVC
19:34 70.0 °F 67.9 °F 30.04 in Calm     93% 0.02 in 0.0 W/m2 OVC
19:39 70.0 °F 67.9 °F 30.04 in Calm     93% 0.02 in 0.0 W/m2 OVC
19:44 70.0 °F 67.9 °F 30.04 in Calm     93% 0.02 in 0.0 W/m2 OVC
19:49 70.0 °F 67.9 °F 30.04 in Calm     93% 0.02 in 0.0 W/m2 OVC
19:54 70.0 °F 67.9 °F 30.04 in Calm     93% 0.02 in 0.0 W/m2 OVC
19:59 70.0 °F 67.9 °F 30.04 in Calm     93% 0.02 in 0.0 W/m2 OVC
20:04 69.1 °F 67.9 °F 30.05 in Calm     96% 0.06 in 0.0 W/m2 RA
20:09 69.1 °F 67.9 °F 30.05 in Calm     96% 0.06 in 0.0 W/m2 RA
20:14 69.1 °F 67.9 °F 30.05 in Calm     96% 0.06 in 0.0 W/m2 OVC
20:19 69.1 °F 67.9 °F 30.05 in Calm     96% 0.06 in 0.0 W/m2 OVC
20:24 69.1 °F 67.9 °F 30.05 in Calm     96% 0.06 in 0.0 W/m2 OVC
20:29 69.1 °F 67.9 °F 30.05 in Calm     96% 0.06 in 0.0 W/m2 OVC
20:34 69.1 °F 67.9 °F 30.05 in Calm     96% 0.06 in 0.0 W/m2 OVC
20:39 69.1 °F 67.9 °F 30.05 in Calm     96% 0.06 in 0.0 W/m2 OVC
20:44 69.1 °F 67.9 °F 30.05 in Calm     96% 0.06 in 0.0 W/m2 OVC
20:49 69.1 °F 67.9 °F 30.05 in Calm     96% 0.06 in 0.0 W/m2 OVC
20:54 69.1 °F 67.9 °F 30.05 in Calm     96% 0.06 in 0.0 W/m2 OVC
20:59 69.1 °F 67.9 °F 30.05 in Calm     96% 0.06 in 0.0 W/m2 OVC
21:04 69.1 °F 67.9 °F 30.05 in Calm     96% 0.11 in 0.0 W/m2 -RA
21:09 69.1 °F 67.9 °F 30.05 in Calm     96% 0.11 in 0.0 W/m2 -RA
21:14 69.1 °F 67.9 °F 30.05 in Calm     96% 0.11 in 0.0 W/m2 -RA
21:19 69.1 °F 67.9 °F 30.05 in Calm     96% 0.11 in 0.0 W/m2 -RA
21:24 69.1 °F 67.9 °F 30.05 in Calm     96% 0.11 in 0.0 W/m2 -RA
21:29 69.1 °F 67.9 °F 30.05 in Calm     96% 0.11 in 0.0 W/m2 -RA
21:34 69.1 °F 67.9 °F 30.05 in Calm     96% 0.11 in 0.0 W/m2 +RA
21:39 69.1 °F 67.9 °F 30.05 in Calm     96% 0.11 in 0.0 W/m2 +RA
21:44 69.1 °F 67.9 °F 30.05 in Calm     96% 0.11 in 0.0 W/m2 +RA
21:49 69.1 °F 67.9 °F 30.05 in Calm     96% 0.11 in 0.0 W/m2 -RA
21:54 69.1 °F 67.9 °F 30.05 in Calm     96% 0.11 in 0.0 W/m2 -RA
21:59 69.1 °F 67.9 °F 30.05 in Calm     96% 0.11 in 0.0 W/m2 -RA
22:04 68.0 °F 68.0 °F 30.05 in Calm     100% 0.17 in 0.0 W/m2 RA
22:09 68.0 °F 68.0 °F 30.05 in Calm     100% 0.17 in 0.0 W/m2 RA
22:14 68.0 °F 68.0 °F 30.05 in Calm     100% 0.17 in 0.0 W/m2 OVC
22:19 68.0 °F 68.0 °F 30.05 in Calm     100% 0.17 in 0.0 W/m2 OVC
22:24 68.0 °F 68.0 °F 30.05 in Calm     100% 0.17 in 0.0 W/m2 OVC
22:29 68.0 °F 68.0 °F 30.05 in Calm     100% 0.17 in 0.0 W/m2 OVC
22:34 68.0 °F 68.0 °F 30.05 in Calm     100% 0.17 in 0.0 W/m2 OVC
22:39 68.0 °F 68.0 °F 30.05 in Calm     100% 0.17 in 0.0 W/m2 OVC
22:44 68.0 °F 68.0 °F 30.05 in Calm     100% 0.17 in 0.0 W/m2 OVC
22:49 68.0 °F 68.0 °F 30.05 in Calm     100% 0.17 in 0.0 W/m2 OVC
22:54 68.0 °F 68.0 °F 30.05 in Calm     100% 0.17 in 0.0 W/m2 OVC
22:59 68.0 °F 68.0 °F 30.05 in Calm     100% 0.17 in 0.0 W/m2 OVC
23:04 68.0 °F 68.0 °F 30.04 in Calm     100% 0.19 in 0.0 W/m2 -RA
23:09 68.0 °F 68.0 °F 30.04 in Calm     100% 0.19 in 0.0 W/m2 -RA
23:14 68.0 °F 68.0 °F 30.04 in Calm     100% 0.19 in 0.0 W/m2 -RA
23:15 68.0 °F 68.0 °F 30.04 in Calm     100% 0.19 in 0.0 W/m2 -RA
23:20 68.0 °F 68.0 °F 30.03 in Calm     100% 0.19 in 0.0 W/m2 -RA
23:25 68.0 °F 68.0 °F 30.03 in Calm     100% 0.19 in 0.0 W/m2 -RA
23:30 68.0 °F 68.0 °F 30.03 in Calm     100% 0.19 in 0.0 W/m2 -RA
23:35 68.0 °F 68.0 °F 30.03 in Calm     100% 0.19 in 0.0 W/m2 -RA
23:40 68.0 °F 68.0 °F 30.03 in Calm     100% 0.19 in 0.0 W/m2 -RA
23:45 68.0 °F 68.0 °F 30.03 in Calm     100% 0.19 in 0.0 W/m2 -RA
23:50 68.0 °F 68.0 °F 30.03 in Calm     100% 0.19 in 0.0 W/m2 OVC
23:55 68.0 °F 68.0 °F 30.03 in Calm     100% 0.19 in 0.0 W/m2 OVC
Lake Mary, FL, USA
Compliments of Weather Underground - 1.75 mb